Pembroke, NC

5:34 AM EDT on April 25, 2017 (GMT -0400)
Hunter's Run | | Change Station
Active Advisory: Flood Warning

Elev 175 ft 34.66 °N, 79.18 °W | Updated 2 minutes ago

Overcast
Overcast
58.9 °F
Feels Like 58.9 °F
N
3.0
Wind Variable Wind from WNW
Gusts 4.0 mph

Today
High -- | Low -- °F
--% Chance of Precip.
Yesterday
High -- | Low -- °F
Precip. -- in
Pressure 29.56 in
Visibility 2.0 miles
Clouds Overcast 200 ft
Dew Point 58 °F
Humidity 98%
Rainfall 0.00 in
Snow Depth Not available.
6:32 AM 7:57 PM
Waning Crescent, 2% visible
SPECI KLBT 250912Z AUTO 00000KT 2SM BR OVC002 14/14 A2956 RMK AO2 T01440144
Pressure 29.56 in
Visibility 2.0 miles
Clouds Overcast 200 ft
Dew Point 58 °F
Humidity 98%
Rainfall 0.00 in
Snow Depth Not available.
6:32 AM 7:57 PM
Waning Crescent, 2% visible
SPECI KLBT 250912Z AUTO 00000KT 2SM BR OVC002 14/14 A2956 RMK AO2 T01440144

Get Your Daily Forecast Email!

Thanks for signing up!

Be on the lookout for a verification email in your inbox.

You'll start receiving severe weather alerts in your inbox..

×

10-Day Weather Forecast

Almanac

Astronomy

Apr. 25, 2017 Rise Set
Actual Time
Civil Twilight
Nautical Twilight
Astronomical Twilight
Moon
Length of Visible Light
Length of Day
Tomorrow will be .
, % of the Moon is Illuminated

Today's Extremes

State Highs State Lows

Community

WunderPhotos

WunderBlog® & News

Nearby

Air Quality

  Air Quality AQ Index Pollutant
Not available.

Snow Depth

Station Depth Elevation

Earthquake Activity

City Distance Mag. Time & Date
Minimum magnitude displayed is 2.5.

Coastal Water Temperatures

Place Temperature

Stations

Nearby Weather Stations

Station Location Temp. Windchill Dew Point Humidity Wind Precip. Elev Updated Type
                   

Watches & Warnings

Flood Warning
Issued: 10:38 PM EDT Apr. 24, 2017 – National Weather Service

... Flood Warning now in effect until Thursday evening...
the Flood Warning continues for
the lumber near Lumberton.
* Until Thursday evening.
* At 7:34 PM Monday the stage was 10.91 feet.
* Flood stage is 13.0 feet.
* Minor flooding is forecast.
* Forecast... rise above flood stage by tomorrow morning and continue to rise to
near 14.3 feet by tomorrow evening. The river will fall below flood stage by
late Thursday morning.
* Impact... at 15.0 feet... flood waters will affect yards in The Pines area, Coxs
Pond area, and along River Road. Additional residential property will be
affected between the pepsi plant and the river on the east side of Lumberton.


Lat... Lon 3467 7916 3468 7904 3457 7891 3452 7899
          3461 7907 3458 7915